Torna al catalogo

STARLINK-11638

AttivoComunicazioniVLEO
NORAD 63269·PAYLOAD·🇺🇸 United States

Lanciato Mar 15, 2025 da Cape Canaveral Space Force Station

Loading…

Prossimi Passaggi (prossime 24 ore)

TLE

AggiornatoSource: CelesTrak SupGP

Epoca: Sep 15, 2026, 02:08 UTC

1 63269C 25053E   26258.08937500 -.00071610  00000+0 -55596-3 0  2583
2 63269  43.0012  50.3231 0001724 271.5887 320.9984 15.70883737    19

Traccia STARLINK-11638 in tempo reale con AllMySat

Download on the App Store